Location: Presov
(49.0000°N, 21.2500°E)
Time: 07:19:37
(UTC+02:00)

Transit 2A Rocket - Pass Details

Date: 15 April 2021
Orbit: 594 x 909 km, 66.7° (Epoch: 07 May)

Event Time Altitude Azimuth Distance (km) Brightness Sun altitude
Rises 23:16:22 0° 329° (NNW) 2,846 9.2 -28.4°
Reaches altitude 10° 23:19:26 10° 353° (N) 1,957 8.0 -28.6°
Maximum altitude 23:22:05 16° 30° (NNE) 1,644 7.1 -28.8°
Enters shadow 23:23:38 13° 54° (NE) 1,777 7.0 -28.9°
Drops below altitude 10° 23:24:48 10° 68° (ENE) 2,010 - -28.9°
Sets 23:28:01 0° 90° (E) 2,968 - -29.1°
